[[{"header":{"parameterUnit":"m.s-1","parameterCategory":1,"la1":30.2991,"la2":30.254,"lo1":-89.0895,"lo2":-89.0444,"dy":0.0017,"dx":0.0017,"nx":28,"ny":28,"refTime":"2024-03-22T09:00:00:Z","depth":0,"parameterNumber":2,"parameterNumberName":"U-component_of_WINDS"},"data":[0,0,0,0,0,0,0,0,0,0,0,0,0,0,0,0,0,0,0,0,0,0,0,0,0,0,0,0,0,0,0,0,0,0,0,0,0,0,0,0,0,0,0,0,0,0,0,0,0,0,0,0,0,0,0,0,0,0,3.6364,3.6366,0,3.6559,3.6561,3.6563,3.658,3.6578,3.6576,3.6574,3.6786,3.6794,3.6801,0,0,0,0,0,0,0,0,0,0,0,0,0,3.6023,3.6029,3.6364,3.6366,3.6369,3.6558,3.6561,3.6564,3.658,3.6578,3.6575,3.6573,3.6784,3.6793,3.6802,0,0,0,0,0,0,0,0,0,0,0,0,0,3.619,3.6031,3.6364,3.64,3.6405,3.6558,3.6561,3.6565,3.6581,3.6578,3.6574,3.6571,3.6781,3.6792,3.6803,3.6938,0,0,3.6839,3.6843,0,0,0,0,0,0,0,0,3.618,3.6202,3.6392,3.6397,3.6403,3.6541,3.6519,3.669,3.6582,3.6514,3.6574,3.657,3.6708,3.6726,3.677,3.6948,3.6957,3.684,3.6846,3.6851,3.6855,0,0,0,0,0,0,0,3.6169,3.6194,3.6442,3.6395,3.6402,3.6411,3.6431,3.6551,3.6628,3.652,3.6522,3.6544,3.6711,3.6758,3.6775,3.696,3.6839,3.6849,3.6856,3.6861,3.7266,3.727,0,0,0,0,0,0,3.6148,3.6184,3.6435,3.6447,3.6281,3.642,3.6443,3.6501,3.6626,3.6642,3.6546,3.6544,3.674,3.6761,3.6782,3.6953,3.6851,3.6862,3.6869,3.7263,3.7267,3.7271,0,0,0,0,0,0,3.6141,3.617,3.6427,3.6316,3.635,3.6429,3.6494,3.6506,3.6553,3.6646,3.6661,3.658,3.6739,3.6766,3.69,3.696,3.6867,3.6878,3.7258,3.7264,3.7269,3.7291,0,0,0,0,0,0,3.6131,3.6167,3.6215,3.6317,3.6355,3.6537,3.6498,3.6512,3.6572,3.657,3.6681,3.6697,3.6738,3.6883,3.6911,3.6974,3.6887,3.7253,3.7261,3.7267,3.7285,3.7297,3.7307,0,0,0,0,0,3.6118,3.6215,3.6218,3.6248,3.6416,3.654,3.6563,3.6605,3.6576,3.6628,3.6688,3.6693,3.6948,3.6896,3.6928,3.6996,3.7249,3.7258,3.7267,3.7281,3.7295,3.7306,0,0,0,0,0,0,3.6123,3.6229,3.6233,3.6364,3.6443,3.6542,3.6609,3.6617,3.6709,3.6704,3.6757,3.6782,3.6915,3.6969,3.6909,3.7136,3.7097,3.7112,3.7096,3.711,3.712,3.7106,3.6896,0,0,0,0,0,3.6138,3.6225,3.6315,3.6423,3.6462,3.6528,3.6584,3.661,3.6695,3.6729,3.6799,3.6885,3.6986,3.705,3.7147,3.7293,3.7321,3.7356,3.7366,3.7375,3.7389,3.7476,3.7494,3.73,3.73,3.73,0,0,3.6172,3.6241,3.6294,3.6426,3.6489,3.6584,3.6556,3.6656,3.6728,3.6746,3.6876,3.693,3.7031,3.7172,3.7238,3.7221,3.7448,3.7386,3.7392,3.7402,3.7487,3.7505,3.7521,3.7306,3.7305,3.7304,0,0,3.6284,3.6342,3.644,3.6504,3.66,3.6644,3.6668,3.6767,3.6803,3.6933,3.695,3.704,3.7209,3.7282,3.7341,3.7483,3.7494,3.7514,3.7571,3.7655,3.767,3.7684,3.774,3.7759,3.7527,3.7527,3.7527,0,3.6316,3.6453,3.6491,3.6591,3.6651,3.6668,3.6772,3.6833,3.6958,3.7002,3.698,3.7196,3.7265,3.7426,3.7461,3.7506,3.754,3.7502,3.7664,3.7678,3.7692,3.7746,3.7766,3.7529,3.7529,3.7529,3.7528,0,3.649,3.6586,3.6655,3.6771,3.6839,3.694,3.6999,3.7065,3.7086,3.7134,3.7271,3.7354,3.747,3.751,3.7532,3.7676,3.7663,3.7652,3.7614,3.7712,3.7764,3.7784,3.7532,3.7531,3.7531,3.753,0,0,3.6609,3.6745,3.6771,3.6825,3.6933,3.7011,3.7116,3.7226,3.7284,3.737,3.7463,3.7608,3.7599,3.7667,3.7698,3.7771,3.7885,3.7752,3.7756,3.7778,3.8056,3.8066,3.8089,3.7892,3.7896,3.7899,3.8049,0,3.6735,3.6917,3.6956,3.7116,3.7209,3.7227,3.732,3.74,3.7449,3.7539,3.7595,3.7699,3.7676,3.7718,3.7791,3.7855,3.7943,3.7845,3.7986,3.799,3.7962,3.8115,3.8125,3.8263,3.8069,3.8073,3.8075,0,3.6906,3.6994,3.7161,3.7261,3.7301,3.7383,3.749,3.7573,3.7667,3.7698,3.7774,3.7798,3.7915,3.7869,3.8035,3.7967,3.8028,3.8069,3.8076,3.8093,3.804,3.8141,3.8307,3.8329,3.8106,3.8104,3.8102,0,3.6982,3.7141,3.7264,3.731,3.7427,3.7485,3.7538,3.7628,3.7693,3.7788,3.7832,3.794,3.8001,3.8088,3.8143,3.8104,3.8307,3.8264,3.8341,3.834,3.8385,3.8382,3.8567,3.8418,3.8417,3.8417,3.8417,0,3.7121,3.7224,3.7299,3.7375,3.7493,3.754,3.7658,3.7711,3.7792,3.7883,3.7907,3.7993,3.8059,3.8157,3.8201,3.8335,3.8361,3.8394,3.8406,3.8394,3.8391,3.8437,3.843,3.8423,3.8421,3.842,3.8419,0,3.7226,3.7279,3.7415,3.7515,3.7543,3.7626,3.7715,3.7793,3.7842,3.7958,3.7988,3.8068,3.8185,3.8247,3.8394,3.8425,3.8575,3.858,3.8543,3.8548,3.8623,3.8617,3.8848,3.8883,3.8706,3.8707,3.8709,0,3.7312,3.7392,3.75,3.7561,3.7614,3.7711,3.7777,3.7828,3.7897,3.8012,3.8077,3.8193,3.8289,3.8475,3.8551,3.8664,3.8675,3.8748,3.8692,3.868,3.8682,3.8677,3.8688,3.8758,3.876,3.8761,3.8762,0,3.7462,3.7485,3.7577,3.7679,3.7757,3.7841,3.7925,3.7975,3.8041,3.8118,3.8235,3.8309,3.8458,3.8576,3.8696,3.8757,3.8774,3.8779,3.8804,3.8794,3.8771,3.8789,3.8573,3.8774,3.8773,3.8772,3.8771,3.8771,3.7564,3.7637,3.7725,3.7829,3.7896,3.7975,3.8053,3.8112,3.8209,3.8331,3.8357,3.8482,3.858,3.8742,3.8806,3.8909,3.8896,3.893,3.894,3.8949,3.8954,3.8751,3.8931,3.8931,3.8931,3.8931,3.893,0,3.7719,3.7777,3.787,3.7986,3.8069,3.8071,3.8165,3.8236,3.8344,3.8431,3.8524,3.8662,3.8777,3.8862,3.8981,3.9048,3.9059,3.9078,3.9076,3.9091,3.8957,3.8925,3.9067,3.9067,3.9067,3.9067,3.9067,3.9067,3.7809,3.7935,3.7969,3.8131,3.819,3.8309,3.8363,3.8438,3.8508,3.8659,3.8753,3.8805,3.8894,3.902,3.9129,3.9151,3.9196,3.9215,3.924,3.9114,3.9099,3.9086,3.9057,3.9224,3.9224,3.9365,3.9367,3.9368]},{"header":{"parameterUnit":"m.s-1","parameterCategory":1,"la1":30.2991,"la2":30.254,"lo1":-89.0895,"lo2":-89.0444,"dy":0.0017,"dx":0.0017,"nx":28,"ny":28,"refTime":"2024-03-22T09:00:00:Z","depth":0,"parameterNumber":3,"parameterNumberName":"V-component_of_WINDS"},"data":[0,0,0,0,0,0,0,0,0,0,0,0,0,0,0,0,0,0,0,0,0,0,0,0,0,0,0,0,0,0,0,0,0,0,0,0,0,0,0,0,0,0,0,0,0,0,0,0,0,0,0,0,0,0,0,0,0,0,-2.6252,-2.6251,0,-2.6119,-2.6118,-2.6116,-2.6049,-2.6048,-2.6048,-2.6048,-2.5899,-2.5895,-2.5891,0,0,0,0,0,0,0,0,0,0,0,0,0,-2.6437,-2.6434,-2.6252,-2.625,-2.6249,-2.612,-2.6118,-2.6116,-2.6049,-2.6048,-2.6048,-2.6048,-2.59,-2.5895,-2.5891,0,0,0,0,0,0,0,0,0,0,0,0,0,-2.6335,-2.6433,-2.6252,-2.62,-2.6194,-2.612,-2.6118,-2.6115,-2.6049,-2.6048,-2.6048,-2.6048,-2.5902,-2.5896,-2.589,-2.5854,0,0,-2.5872,-2.5869,0,0,0,0,0,0,0,0,-2.6341,-2.6329,-2.6209,-2.6203,-2.6197,-2.6101,-2.6128,-2.6027,-2.6049,-2.6103,-2.6048,-2.6048,-2.5965,-2.5954,-2.5929,-2.5847,-2.5841,-2.5871,-2.5868,-2.5865,-2.5863,0,0,0,0,0,0,0,-2.6348,-2.6334,-2.6199,-2.6208,-2.62,-2.618,-2.6165,-2.6109,-2.6035,-2.6098,-2.6093,-2.6079,-2.5961,-2.5935,-2.5925,-2.5838,-2.5871,-2.5866,-2.5863,-2.586,-2.5722,-2.5722,0,0,0,0,0,0,-2.6366,-2.634,-2.6203,-2.6195,-2.6271,-2.6177,-2.616,-2.6131,-2.6036,-2.6022,-2.6079,-2.6077,-2.5945,-2.5932,-2.5919,-2.5872,-2.5865,-2.586,-2.5856,-2.5723,-2.5722,-2.5722,0,0,0,0,0,0,-2.637,-2.6354,-2.6209,-2.6266,-2.6247,-2.6173,-2.6141,-2.6129,-2.6102,-2.6022,-2.6007,-2.6066,-2.5944,-2.5927,-2.5872,-2.5866,-2.5857,-2.5852,-2.5723,-2.5723,-2.5722,-2.5777,0,0,0,0,0,0,-2.6375,-2.6356,-2.6344,-2.6267,-2.6244,-2.6167,-2.6141,-2.6126,-2.6093,-2.6089,-2.6005,-2.5991,-2.5943,-2.5882,-2.5866,-2.5858,-2.5847,-2.5723,-2.5723,-2.5722,-2.5776,-2.5779,-2.5782,0,0,0,0,0,-2.6382,-2.6361,-2.6343,-2.6327,-2.6228,-2.6167,-2.6153,-2.6102,-2.6093,-2.6079,-2.6028,-2.5994,-2.587,-2.5876,-2.5859,-2.5848,-2.5723,-2.5723,-2.5722,-2.5774,-2.5778,-2.5782,0,0,0,0,0,0,-2.6433,-2.6349,-2.6329,-2.6283,-2.6234,-2.6156,-2.6136,-2.6108,-2.6055,-2.6052,-2.5987,-2.5968,-2.5919,-2.5878,-2.5887,-2.5809,-2.5793,-2.5789,-2.5838,-2.5841,-2.5845,-2.5855,-2.5842,0,0,0,0,0,-2.644,-2.6402,-2.6329,-2.6295,-2.6272,-2.6209,-2.618,-2.6146,-2.609,-2.6067,-2.6012,-2.5955,-2.5903,-2.587,-2.5818,-2.577,-2.5751,-2.5754,-2.5757,-2.576,-2.5757,-2.573,-2.5731,-2.5722,-2.5722,-2.5722,0,0,-2.6451,-2.6401,-2.638,-2.6304,-2.6262,-2.6221,-2.6191,-2.6148,-2.6117,-2.6059,-2.6005,-2.5963,-2.5895,-2.5845,-2.5819,-2.5808,-2.5756,-2.576,-2.5763,-2.5758,-2.573,-2.5731,-2.5732,-2.5721,-2.5722,-2.5722,0,0,-2.6452,-2.6411,-2.6379,-2.6339,-2.6277,-2.6236,-2.6229,-2.6157,-2.6128,-2.6075,-2.6031,-2.5991,-2.5903,-2.5857,-2.5822,-2.5811,-2.5778,-2.5796,-2.5811,-2.5785,-2.5786,-2.5786,-2.5783,-2.5782,-2.5793,-2.5793,-2.5793,0,-2.6472,-2.6413,-2.6365,-2.6327,-2.6295,-2.6247,-2.6214,-2.6175,-2.6097,-2.6075,-2.6065,-2.5957,-2.5907,-2.5846,-2.5845,-2.5818,-2.5806,-2.5804,-2.5791,-2.5791,-2.579,-2.5785,-2.5784,-2.5796,-2.5796,-2.5795,-2.5795,0,-2.6442,-2.6402,-2.6383,-2.6316,-2.6282,-2.6246,-2.619,-2.6161,-2.613,-2.609,-2.6035,-2.5976,-2.5912,-2.5895,-2.5862,-2.5829,-2.5825,-2.5804,-2.5786,-2.5795,-2.5789,-2.5787,-2.58,-2.5799,-2.5798,-2.5797,0,0,-2.6467,-2.6379,-2.6372,-2.6343,-2.6273,-2.6239,-2.6201,-2.6144,-2.612,-2.6069,-2.6034,-2.5963,-2.5945,-2.5906,-2.5868,-2.5846,-2.5842,-2.5827,-2.5824,-2.5832,-2.5802,-2.5818,-2.5817,-2.582,-2.582,-2.5819,-2.5808,0,-2.6458,-2.6392,-2.6349,-2.6299,-2.6261,-2.6217,-2.6184,-2.6136,-2.6098,-2.6057,-2.6013,-2.5965,-2.5944,-2.5921,-2.5897,-2.5847,-2.5834,-2.5847,-2.5784,-2.5782,-2.5802,-2.5814,-2.583,-2.5822,-2.5805,-2.5805,-2.5805,0,-2.6437,-2.6394,-2.6341,-2.628,-2.6262,-2.6233,-2.6179,-2.6142,-2.6087,-2.606,-2.602,-2.5983,-2.5938,-2.5926,-2.5863,-2.5873,-2.5845,-2.5817,-2.5815,-2.5806,-2.5793,-2.5804,-2.5818,-2.5817,-2.5801,-2.5801,-2.5801,0,-2.6461,-2.6389,-2.6349,-2.6325,-2.6251,-2.6233,-2.62,-2.6146,-2.6115,-2.6067,-2.6046,-2.5991,-2.596,-2.5917,-2.5866,-2.5862,-2.5808,-2.5791,-2.5782,-2.5784,-2.5771,-2.5772,-2.578,-2.5755,-2.5755,-2.5755,-2.5755,0,-2.6454,-2.6424,-2.636,-2.6335,-2.63,-2.6251,-2.6216,-2.6179,-2.6132,-2.6097,-2.6054,-2.6022,-2.5956,-2.5915,-2.5874,-2.5828,-2.5814,-2.5789,-2.5779,-2.5793,-2.5796,-2.5772,-2.5771,-2.5754,-2.5755,-2.5755,-2.5755,0,-2.6474,-2.643,-2.6384,-2.6321,-2.6304,-2.6281,-2.6225,-2.6198,-2.616,-2.6117,-2.6104,-2.6042,-2.5991,-2.5937,-2.5866,-2.5838,-2.5795,-2.5779,-2.5815,-2.5809,-2.5804,-2.5805,-2.5795,-2.5791,-2.577,-2.577,-2.577,0,-2.6472,-2.6449,-2.6386,-2.6362,-2.6333,-2.6295,-2.6265,-2.6216,-2.6187,-2.6125,-2.6105,-2.6053,-2.6009,-2.593,-2.5876,-2.5822,-2.5805,-2.5806,-2.5796,-2.5812,-2.5805,-2.5807,-2.5804,-2.5808,-2.5808,-2.5808,-2.5809,0,-2.6474,-2.6455,-2.6417,-2.6372,-2.634,-2.6301,-2.6259,-2.6241,-2.6184,-2.6152,-2.6104,-2.607,-2.6002,-2.595,-2.5891,-2.5853,-2.5821,-2.5813,-2.5808,-2.5822,-2.5844,-2.5832,-2.5822,-2.5813,-2.5812,-2.5812,-2.5812,-2.5812,-2.6482,-2.6461,-2.6414,-2.6374,-2.6339,-2.6303,-2.6276,-2.6237,-2.6197,-2.6142,-2.6114,-2.6066,-2.6012,-2.593,-2.5894,-2.5854,-2.5843,-2.5836,-2.5834,-2.5833,-2.5837,-2.5852,-2.5842,-2.5842,-2.5842,-2.5842,-2.5842,0,-2.6482,-2.6452,-2.6415,-2.6362,-2.633,-2.6309,-2.6263,-2.6237,-2.6197,-2.6152,-2.6112,-2.6056,-2.6007,-2.5952,-2.5898,-2.5876,-2.586,-2.5864,-2.5864,-2.5856,-2.5849,-2.5859,-2.5878,-2.5878,-2.5878,-2.5878,-2.5878,-2.5878,-2.6478,-2.6441,-2.6417,-2.6362,-2.633,-2.6287,-2.6263,-2.6229,-2.6194,-2.6136,-2.6097,-2.6064,-2.6014,-2.5958,-2.5911,-2.5895,-2.5877,-2.5885,-2.5865,-2.5859,-2.5856,-2.5853,-2.5862,-2.5882,-2.5882,-2.5876,-2.5876,-2.5876]}]]